Location: Walnut Hills Mobile Home Park
(34.0445°N, 117.8184°W)
Time: 03:34:12
(UTC+00:00)

NOSS 3-1 (A) - Pass Details

Date: 17 December 2025
Orbit: 613 x 1593 km, 63.4° (Epoch: 10 January)

Event Time Altitude Azimuth Distance (km) Brightness Sun altitude
Exits shadow 12:23:15 45° 338° (NNW) 1,732 4.5 -29.7°
Maximum altitude 12:26:13 82° 59° (ENE) 1,411 4.2 -29.1°
Drops below altitude 10° 12:35:38 10° 148° (SSE) 3,728 7.0 -27.2°
Sets 12:38:50 0° 149° (SSE) 4,754 7.7 -26.5°
